Terminal Aerodrome Forecast
Issued by NWS Quad Cities IA IL

Home | Current Version | Previous Version | Text Only | Print | Product List | Glossary Off
Versions: 1 2 3 4 5 6 7 8 9 10 11 12 13 14 15 16 17 18 19 20 21 22 23 24

593
FTUS43 KDVN 241236 AAA
TAFDBQ
TAF AMD
KDBQ 241236Z 2413/2512 VRB03KT P6SM OVC010
     FM241400 05004KT P6SM OVC015
     FM242100 10009KT P6SM OVC017
     FM250100 10016G24KT 4SM -RASN BR OVC012
     FM250700 11013KT 2SM -RASN BR OVC004=

USA.gov is the U.S. government's official web portal to all federal, state and local government web resources and services.